EW6131 Weather Reports


time (UTC)temp
F
wind
direction
speed
knots
gust
knots
rain 1hr
in
rain 24hr
in
rain mn
in
humidity
%
barometer
mb
20260503050028 50 67 1.7 9.6 0.00 0.00 0.00 59 1010.2
20260503044539 50 71 0.9 10.4 0.00 0.00 0.00 60 1009.9
20260503043028 50 22 2.6 10.4 0.00 0.00 0.00 62 1009.9
20260503041529 50 0 2.6 10.4 0.00 0.00 0.00 64 1010.3
20260503040030 49 0 1.7 5.2 0.00 0.00 0.00 68 1010.4
20260503034527 49 0 0.9 7.0 0.00 0.00 0.00 74 1010.1
20260503033028 48 13 1.7 7.8 0.00 0.00 0.00 86 1010.2
20260503031529 48 0 0.0 7.8 0.00 0.00 0.00 91 1010.2
20260503030030 48 0 0.0 0.0 0.00 0.00 0.00 90 1010.1
20260503024530 49 0 0.0 0.0 0.00 0.00 0.00 90 1010.4
20260503023030 49 0 0.0 0.0 0.00 0.00 0.00 90 1010.5
20260503021530 49 0 0.0 0.0 0.00 0.00 0.00 89 1010.4
20260503020028 50 0 0.0 0.0 0.00 0.00 0.00 89 1010.4
20260503014530 50 0 0.0 0.0 0.00 0.00 0.00 88 1010.4
20260503013035 50 0 0.0 0.0 0.00 0.00 0.00 88 1010.5
20260503011531 51 0 0.0 0.0 0.00 0.00 0.00 88 1010.5
20260503010028 51 0 0.0 0.0 0.00 0.00 0.00 88 1010.3
20260503004530 51 0 0.0 0.0 0.00 0.00 0.00 87 1010.2
20260503003032 52 0 0.0 0.0 0.00 0.00 0.00 86 1010.1
20260503001530 52 0 0.0 0.0 0.00 0.00 0.00 85 1010.2
20260503000036 53 0 0.0 0.0 0.00 0.00 0.00 84 1010.1
20260502234531 53 0 0.0 0.0 0.00 0.00 0.00 82 1010.0
20260502233030 53 0 0.0 0.0 0.00 0.00 0.00 81 1009.9
20260502231530 54 0 0.0 2.6 0.00 0.00 0.00 82 1010.0
20260502230029 54 0 0.0 3.5 0.00 0.00 0.00 81 1010.0
20260502224528 54 0 0.0 3.5 0.00 0.00 0.00 81 1010.1
20260502223029 54 0 0.0 0.0 0.00 0.00 0.00 82 1010.0
20260502221534 55 0 0.0 2.6 0.00 0.00 0.00 82 1010.1
20260502220028 55 0 0.0 2.6 0.00 0.00 0.00 81 1009.8
20260502214527 54 0 0.0 2.6 0.00 0.00 0.00 82 1010.0
20260502213028 54 0 0.0 1.7 0.00 0.00 0.00 83 1009.8
20260502211549 54 0 0.0 0.0 0.00 0.00 0.00 83 1009.8
20260502210028 54 0 0.0 0.0 0.00 0.00 0.00 82 1010.0
20260502204528 54 0 0.0 0.9 0.00 0.00 0.00 83 1009.8
20260502203028 54 0 0.0 2.6 0.00 0.00 0.00 83 1009.9
20260502201531 54 0 0.0 3.5 0.00 0.00 0.00 83 1009.9
20260502200029 54 173 0.9 4.3 0.00 0.00 0.00 82 1010.1
20260502194528 55 0 0.9 5.2 0.00 0.00 0.00 82 1010.3
20260502193028 56 202 0.9 5.2 0.00 0.00 0.00 81 1010.4
20260502191531 57 157 2.6 7.0 0.00 0.00 0.00 79 1010.6
20260502190032 57 0 0.9 6.1 0.00 0.00 0.00 78 1010.6
20260502184530 57 162 0.9 5.2 0.00 0.00 0.00 79 1010.7
20260502183028 56 0 0.0 1.7 0.00 0.00 0.00 80 1010.9
20260502181529 55 0 0.0 3.5 0.00 0.00 0.00 81 1010.9
20260502163036 53 296 0.0 6.1 0.00 0.00 0.00 89 1011.4
20260502161548 52 0 0.0 2.6 0.00 0.00 0.00 89 1011.5
20260502151529 51 218 0.9 3.5 0.00 0.00 0.00 89 1011.9
20260502123103 53 164 0.9 4.3 0.00 0.00 0.00 86 1012.0
20260502121528 53 160 1.7 5.2 0.00 0.00 0.00 86 1011.7
20260502114531 52 0 0.0 3.5 0.00 0.00 0.00 88 1012.1
20260502113030 51 269 0.9 3.5 0.00 0.00 0.00 88 1012.1
20260502111532 51 257 1.7 4.3 0.00 0.00 0.00 87 1012.2
20260502110039 50 235 1.7 7.8 0.00 0.00 0.00 88 1012.1
20260502104529 50 239 1.7 6.1 0.00 0.00 0.00 88 1011.7
20260502103031 50 238 0.9 4.3 0.00 0.00 0.00 88 1011.7
20260502101530 50 250 0.9 7.0 0.00 0.00 0.00 88 1011.8
20260502091528 50 244 0.9 4.3 0.00 0.00 0.00 87 1011.9
20260502071531 50 237 1.7 6.1 0.00 0.00 0.00 86 1011.9
20260502070030 50 240 1.7 4.3 0.00 0.00 0.00 86 1011.9
20260502064534 50 0 0.9 4.3 0.00 0.00 0.00 86 1012.1
20260502063034 50 228 0.9 4.3 0.00 0.00 0.00 86 1012.4
20260502061531 50 209 0.9 3.5 0.00 0.00 0.00 86 1012.3
20260502060029 50 244 1.7 6.1 0.00 0.00 0.00 85 1012.4
20260502054530 50 0 1.7 7.8 0.00 0.00 0.00 85 1012.3
20260502053028 50 228 0.9 4.3 0.00 0.00 0.00 84 1012.4
20260502051532 50 254 1.7 5.2 0.00 0.00 0.00 84 1012.7